Regional Weather Roundup
Issued by NWS

Home | Current Version | Previous Version | Graphics & Text | Print | Product List | Glossary On
Versions: 1 2 3 4 5 6 7 8 9 10 11 12 13 14 15 16 17 18 19 20 21 22 23 24 25 26 27 28 29 30 31 32 33 34 35 36 37 38 39 40 41 42 43 44 45 46 47 48 49 50
000
ASUS43 KDMX 220401
RWRIA

WEATHER ROUNDUP FOR IOWA
NATIONAL WEATHER SERVICE DES MOINES IA
1100 PM CDT WED JUN 21 2017

NOTE: "FAIR" INDICATES FEW OR NO CLOUDS BELOW 12,000 FEET WITH NO
SIGNIFICANT WEATHER AND/OR OBSTRUCTIONS TO VISIBILITY.

* - THESE STATIONS ARE NOT NWS STATIONS...THUS NOT UNDER NWS
QUALITY CONTROL.  THEY ALSO DO NOT REPORT WEATHER SUCH
AS PRECIPITATION OR FOG.

IAZ001>003-012>014-020>022-031>034-043>046-220500-
   NORTHWEST IOWA

CITY           SKY/WX    TMP DP  RH WIND       PRES   REMARKS
CARROLL *      CLOUDY    79  63  57 S15       29.71R HX  80
CHEROKEE *     LGT RAIN  77  71  83 S3        29.67R
DENISON *      PTCLDY    81  59  47 S16G25    29.71R HX  81
LE MARS *      CLOUDY    81  66  61 SE13      29.65R HX  83
ORANGE CITY *  CLOUDY    81  66  61 S6        29.65F HX  83
SHELDON *      CLOUDY    77  72  83 E5G12     29.65S
SIOUX CITY     MOCLDY    86  66  51 S12       29.64R HX  88
SPENCER        CLOUDY    77  71  82 SE13      29.68S THUNDER
STORM LAKE *   CLOUDY    79  63  57 S14       29.69R HX  80
$$

IAZ055>058-069>071-079>083-090>094-220500-
   SOUTHWEST IOWA

CITY           SKY/WX    TMP DP  RH WIND       PRES   REMARKS
ATLANTIC *     CLOUDY    79  63  57 S12G21    29.74R HX  80
AUDUBON *      CLEAR     79  64  61 S12G17    29.75R HX  81
CLARINDA *     CLEAR     77  64  65 S9        29.78S
COUNCIL BLFS * CLEAR     82  59  44 S17G25    29.71R HX  82
CRESTON *      CLEAR     75  64  69 S12       29.79S
HARLAN  *      MOCLDY    81  61  50 S14G22    29.76R HX  81
LAMONI         CLEAR     77  65  66 S10       29.80R
RED OAK *      CLEAR     81  63  54 S17G23    29.74R HX  82
SHENANDOAH *   CLEAR     81  63  54 S16G25    29.75R HX  82
$$

IAZ047>049-059>061-072>074-084-220500-
   CENTRAL IOWA

CITY           SKY/WX    TMP DP  RH WIND       PRES   REMARKS
AMES           PTCLDY    80  65  59 S10       29.74R HX  82
ANKENY *       CLEAR     81  66  61 S8G15     29.76S HX  83
BOONE *        CLOUDY    81  63  54 S12G18    29.73S HX  82
CHARITON *     CLEAR     77  64  65 S10       29.80R
DES MOINES     CLEAR     78  64  61 S10       29.76S HX  80
GRINNELL*      CLEAR     77  66  68 S10       29.79F
KNOXVILLE *    CLEAR     77  64  65 S9        29.77F
MARSHALLTOWN   CLEAR     75  70  84 SE8       29.75S
NEWTON *       CLEAR     77  66  69 S12G17    29.78S
PELLA *        CLEAR     78  64  61 S7        29.79F
PERRY *          N/A     79  60  52 S13       29.73S HX  80
$$

IAZ004>006-015-016-023>025-035-036-220500-
   NORTH CENTRAL IOWA

CITY           SKY/WX    TMP DP  RH WIND       PRES   REMARKS
ALGONA *       CLOUDY    75  73  94 SE8       29.71R
CLARION *        N/A     77  68  73 S13       29.73R
ESTHERVILLE    CLOUDY    72  71  97 SE17      29.67F
FORT DODGE *   CLOUDY    81  63  54 S15       29.72R HX  82
MASON CITY     CLEAR     70  67  90 SE13      29.76R
FOREST CITY *    N/A     72  64  78 SE10      29.73S
WEBSTER CITY * PTCLDY    79  63  57 S14       29.71R HX  80
IOWA FALLS *   MOCLDY    73  70  91 SE6       29.76R
$$

IAZ007>011-017>019-026>030-037>042-050>054-066-220500-
   NORTHEAST IOWA

CITY           SKY/WX    TMP DP  RH WIND       PRES   REMARKS
CEDAR RAPIDS   CLEAR     72  71  97 S8        29.79F
CHARLES CITY * PTCLDY    72  72 100 SE14      29.76F
CLINTON *      LGT RAIN  73  69  87 SE3       29.82F
DECORAH *      CLOUDY    68  63  83 SE7       29.77F
DUBUQUE        CLEAR     70  65  84 SE8       29.82F
MONTICELLO *   CLEAR     77  70  78 S13G21    29.80S
OELWEIN *      CLOUDY    73  70  88 S13G21    29.79F
WATERLOO       CLOUDY    73  68  84 SE10      29.75S
$$

IAZ064-065-067-068-078-220500-
   EAST CENTRAL IOWA

CITY           SKY/WX    TMP DP  RH WIND       PRES   REMARKS
DAVENPORT      CLOUDY    77  68  73 S10       29.83F
IOWA CITY      PTCLDY    75  70  84 SE13      29.82S
MT. PLEASANT * MOCLDY    78  65  65 S9        29.83F HX  80
MUSCATINE *    CLOUDY    77  70  78 S7        29.83S
QUAD CITIES    CLOUDY    80  68  66 S8        29.82F HX  83
$$

IAZ062-063-075>077-085>089-095>099-220500-
   SOUTHEAST IOWA

CITY           SKY/WX    TMP DP  RH WIND       PRES   REMARKS
BURLINGTON     CLEAR     77  69  76 S8        29.84F
FAIRFIELD *    CLEAR     79  64  61 S8        29.81F HX  81
FORT MADISON * CLEAR     79  66  65 S9        29.85F HX  81
KEOKUK *       CLEAR     79  66  65 S6        29.84F HX  81
OSKALOOSA *      N/A     72  65  77 S8        29.80F
OTTUMWA        CLEAR     77  66  68 S6        29.80F
$$

ABBREVIATIONS USED IN REMARKS
   TC - TEMPERATURES IN CELSIUS
  WCI - WIND CHILL INDEX
   HX - HEAT INDEX
  VSB - VISIBILITY
$$





USA.gov is the U.S. government's official web portal to all federal, state and local government web resources and services.